TimeEST,TemperatureF,Dew PointF,Humidity,Sea Level PressureIn,VisibilityMPH,Wind Direction,Wind SpeedMPH,Gust SpeedMPH,PrecipitationIn,Events,Conditions,WindDirDegrees,DateUTC
12:53 AM,59.0,51.1,75,30.05,10.0,NNW,8.1,-,N/A,,Clear,330,2012-11-22 05:53:00
1:53 AM,57.9,50.0,75,30.04,10.0,NNW,6.9,-,N/A,,Clear,340,2012-11-22 06:53:00
2:53 AM,57.9,48.0,70,30.03,10.0,NNW,9.2,-,N/A,,Clear,330,2012-11-22 07:53:00
3:53 AM,57.9,46.0,65,30.04,10.0,NNW,13.8,20.7,N/A,,Clear,330,2012-11-22 08:53:00
4:53 AM,57.9,48.9,72,30.03,10.0,NNW,12.7,-,N/A,,Clear,330,2012-11-22 09:53:00
5:53 AM,57.9,50.0,75,30.04,10.0,NNW,10.4,-,N/A,,Clear,330,2012-11-22 10:53:00
6:53 AM,57.9,50.0,75,30.06,9.0,NNW,12.7,-,N/A,,Clear,330,2012-11-22 11:53:00
7:53 AM,61.0,48.9,64,30.07,10.0,NNW,16.1,23.0,N/A,,Clear,330,2012-11-22 12:53:00
8:53 AM,64.0,51.1,63,30.09,9.0,NNW,18.4,26.5,N/A,,Clear,340,2012-11-22 13:53:00
9:53 AM,68.0,52.0,56,30.10,10.0,NNW,13.8,23.0,N/A,,Clear,340,2012-11-22 14:53:00
10:53 AM,71.1,53.1,53,30.09,10.0,NNW,17.3,23.0,N/A,,Clear,340,2012-11-22 15:53:00
11:53 AM,73.0,53.1,49,30.07,10.0,NW,16.1,23.0,N/A,,Clear,320,2012-11-22 16:53:00
12:53 PM,73.9,53.1,48,30.04,10.0,NNW,17.3,24.2,N/A,,Clear,330,2012-11-22 17:53:00
1:53 PM,75.0,52.0,44,30.03,10.0,North,15.0,23.0,N/A,,Clear,350,2012-11-22 18:53:00
2:53 PM,75.0,52.0,44,30.03,10.0,NNW,15.0,-,N/A,,Partly Cloudy,340,2012-11-22 19:53:00
3:53 PM,73.9,48.9,41,30.04,10.0,NNW,15.0,23.0,N/A,,Clear,340,2012-11-22 20:53:00
4:53 PM,72.0,45.0,38,30.06,10.0,North,16.1,-,N/A,,Clear,350,2012-11-22 21:53:00
5:53 PM,68.0,45.0,43,30.08,10.0,NNW,9.2,-,N/A,,Clear,340,2012-11-22 22:53:00
6:53 PM,66.0,46.9,50,30.11,10.0,NNW,15.0,-,N/A,,Clear,340,2012-11-22 23:53:00
7:53 PM,64.0,45.0,50,30.12,10.0,North,16.1,21.9,N/A,,Clear,350,2012-11-23 00:53:00
8:53 PM,63.0,46.0,54,30.13,10.0,NNW,13.8,-,N/A,,Clear,340,2012-11-23 01:53:00
9:53 PM,61.0,46.9,60,30.14,10.0,NNW,16.1,25.3,N/A,,Clear,330,2012-11-23 02:53:00
10:53 PM,59.0,46.9,64,30.13,10.0,NNW,13.8,-,N/A,,Clear,340,2012-11-23 03:53:00
11:53 PM,57.9,46.9,67,30.12,10.0,NNW,10.4,-,N/A,,Clear,330,2012-11-23 04:53:00